GEFSMW_con_cape1000_228.txt.gz
Probability
10 13 6 16 16 16 10 6 3 6 6 6 10 10 10 10 13 10 13 19 16 13 10 6 3 0 0 0 0 0 0 0 0 0 0 0 0 0 0 0 0 0 0
13 19 10 13 19 13 10 6 6 6 10 16 13 10 13 13 13 16 10 13 13 10 3 3 3 0 0 0 0 0 0 0 0 0 0 0 0 0 0 0 0 0 0
13 19 13 16 19 10 3 10 10 10 10 13 13 13 6 6 13 10 10 10 13 6 10 3 6 0 0 0 0 0 0 3 0 0 0 0 0 0 0 0 0 0 0
13 10 16 16 16 6 10 10 10 10 10 13 16 13 10 10 6 10 6 3 19 19 10 6 10 6 3 0 0 0 0 6 6 0 0 0 0 0 0 0 0 0 0
13 13 19 19 10 10 6 10 10 10 10 10 13 10 13 10 6 3 6 6 10 13 19 13 10 16 10 0 0 3 6 6 6 6 3 0 0 0 0 0 0 0 0
13 13 13 13 16 10 10 13 6 13 10 13 13 13 19 19 10 6 10 13 16 19 19 26 13 10 3 10 3 3 6 10 10 6 3 3 3 0 0 0 0 0 0
16 19 13 16 19 16 16 13 16 19 19 16 16 13 16 16 16 10 10 13 23 26 23 26 13 13 10 10 6 13 16 10 6 6 10 6 0 0 0 0 0 0 0
10 16 13 19 23 16 19 26 26 29 29 23 19 19 19 19 13 13 19 19 26 29 23 16 10 10 10 13 16 13 19 19 10 10 10 10 10 0 0 0 0 0 0
23 19 19 26 29 19 23 23 29 26 29 26 19 19 23 19 23 19 23 29 29 26 13 10 10 10 10 13 13 13 13 13 10 10 10 10 3 0 0 0 0 3 3
19 16 26 29 29 29 29 29 29 23 23 35 26 29 23 23 23 26 29 29 23 23 19 10 10 10 10 16 16 13 13 10 13 10 10 6 6 3 3 3 3 3 3
13 13 19 29 32 29 29 35 29 23 23 29 29 29 32 29 29 29 29 26 23 16 16 16 13 13 16 16 16 13 13 13 13 13 10 6 10 3 3 3 3 3 3
10 19 23 26 29 26 29 35 29 29 32 32 32 32 32 32 29 26 23 23 23 19 16 16 19 19 19 16 16 13 13 13 13 16 13 6 6 6 3 3 3 3 3
19 23 23 26 23 26 35 42 35 32 29 32 29 26 26 26 26 19 19 19 16 16 23 19 19 16 16 16 16 13 13 13 16 16 10 10 6 6 3 3 3 3 3
29 26 26 29 26 35 39 45 39 35 32 26 26 32 26 29 26 26 19 19 16 16 19 16 13 13 13 19 19 16 16 10 13 6 6 6 6 6 6 3 3 3 3
29 23 23 26 32 35 42 35 29 29 29 35 26 26 29 26 19 23 23 19 16 19 19 19 19 19 19 19 19 19 19 13 10 10 6 6 6 6 6 6 3 3 3
32 29 26 39 42 42 45 39 29 32 29 32 32 32 26 23 23 23 19 16 19 19 19 19 19 19 19 19 13 16 19 16 13 10 10 10 6 6 3 3 3 3 3
32 42 29 39 39 35 39 35 26 29 29 29 32 32 26 23 23 19 16 16 16 16 19 19 19 19 16 16 6 3 13 10 10 10 10 10 6 6 6 3 0 0 0
39 32 39 32 26 26 23 32 26 26 26 29 32 26 26 26 23 19 16 16 13 13 19 19 19 13 13 10 0 0 3 10 10 10 10 10 6 6 6 6 3 3 3
32 32 32 26 26 23 23 29 26 26 26 26 19 26 26 26 26 19 16 16 13 16 16 13 13 13 13 6 0 0 0 3 10 10 10 6 6 6 3 6 6 3 3
35 29 32 32 23 16 19 29 23 26 26 26 26 23 26 26 23 23 19 16 16 19 10 10 10 10 10 6 0 0 0 6 6 10 6 3 3 6 0 3 6 6 6
42 42 39 26 19 13 16 23 23 23 23 19 23 23 23 19 19 16 16 13 13 10 10 10 10 10 6 6 3 0 0 6 6 6 3 6 3 0 0 0 3 3 3
45 45 42 32 19 16 26 26 26 26 23 19 19 19 16 16 16 16 13 6 6 10 10 10 6 6 6 6 6 0 0 0 6 6 3 3 3 0 0 0 0 0 0
39 35 39 29 19 19 19 23 23 19 23 23 19 16 13 13 13 13 10 3 3 6 6 10 6 6 6 6 6 0 0 0 0 6 3 0 0 0 0 0 0 0 0
39 32 32 29 23 23 23 29 16 16 19 16 16 13 13 13 13 10 6 3 3 6 6 3 3 6 6 6 6 3 3 0 0 0 0 0 0 0 0 0 0 0 0
35 32 29 26 23 19 26 23 19 16 16 16 13 13 13 13 6 6 6 3 3 6 6 6 3 3 3 3 3 3 3 3 3 0 0 0 0 0 0 0 0 0 0
26 26 29 19 19 16 19 23 16 13 16 16 13 13 13 13 6 6 3 3 3 6 0 3 3 3 3 3 0 0 0 0 0 0 0 0 0 0 0 0 0 0 0

GEFSMW_con_cape1000_234.txt.gz
Probability
26 55 58 58 68 74 81 81 84 84 84 84 81 77 74 74 71 77 74 77 71 71 74 55 77 77 65 61 58 61 55 52 52 45 32 29 23 26 29 35 26 26 26
39 55 65 68 65 77 81 84 87 84 84 84 81 81 84 74 77 71 81 81 77 81 61 77 65 77 81 74 81 77 68 48 48 58 55 48 48 39 13 23 29 23 23
39 65 74 71 68 74 77 71 87 87 87 84 81 81 90 81 71 77 81 71 71 71 81 77 77 81 74 65 74 77 77 61 61 55 52 39 42 42 26 23 13 19 23
39 52 77 74 71 77 77 81 87 87 87 87 84 77 77 71 71 81 74 71 71 68 61 71 68 74 68 74 68 61 71 81 68 71 74 52 48 35 29 26 16 23 23
39 48 65 77 74 74 77 74 77 87 90 87 87 77 68 68 68 68 74 77 71 65 58 68 68 77 71 68 74 81 81 77 71 68 68 65 58 32 23 16 16 16 23
42 55 65 77 84 71 65 71 77 84 84 77 74 81 81 81 74 71 77 71 68 61 52 55 61 71 68 71 77 77 68 71 71 68 65 58 52 42 26 23 26 19 13
48 58 71 77 81 77 71 74 77 81 81 81 74 77 77 74 74 71 71 71 58 52 58 45 65 65 61 58 58 61 61 61 58 65 58 48 48 42 42 35 26 16 13
58 74 77 74 81 74 74 77 81 81 77 71 74 74 74 68 68 68 65 65 55 45 55 55 58 52 52 48 55 55 52 55 52 48 55 55 42 39 32 29 26 23 16
55 61 74 74 74 77 81 81 81 81 84 71 74 71 68 68 65 65 61 58 55 42 45 48 45 42 42 42 45 52 45 42 35 39 39 35 39 39 29 32 35 23 19
52 65 68 68 77 77 81 77 81 84 77 77 71 61 61 61 61 61 61 58 52 45 45 39 32 39 35 39 35 35 45 45 42 39 35 39 32 39 32 35 26 29 26
55 61 68 77 74 71 74 81 81 74 74 68 61 61 58 55 55 52 52 55 52 42 39 35 35 32 32 29 29 29 32 35 35 35 35 32 35 32 32 32 29 29 23
61 61 71 77 84 77 77 74 68 65 71 61 61 55 58 58 52 52 52 52 48 35 35 32 29 29 29 32 26 26 26 26 32 32 29 29 26 26 23 23 23 19 19
68 65 71 84 81 87 77 74 71 68 58 58 55 52 48 55 55 55 45 42 39 35 32 32 29 29 26 26 23 23 23 23 23 26 23 26 23 26 26 19 19 13 10
77 71 74 84 84 84 84 74 71 61 58 55 58 58 52 52 48 45 42 42 39 39 35 32 26 26 26 23 23 23 23 23 26 23 23 19 19 23 19 19 19 23 16
77 81 77 77 77 81 84 81 68 61 58 58 55 55 48 52 48 42 42 39 39 35 35 32 29 23 23 19 19 19 19 23 19 19 19 19 16 10 13 10 19 19 16
71 74 74 74 74 77 77 74 71 61 58 52 48 48 45 48 48 42 39 35 35 32 29 29 26 23 19 19 19 19 19 19 19 19 19 19 13 10 6 6 6 10 13
71 74 74 74 74 74 77 77 68 61 61 48 48 58 48 45 45 35 39 39 32 29 29 26 26 26 19 16 13 6 19 19 19 19 16 13 10 13 13 6 3 0 0
68 74 77 74 74 74 77 74 71 68 58 55 52 48 48 42 39 39 42 39 29 29 29 26 26 26 19 16 13 6 16 19 19 16 16 16 13 13 13 13 13 13 10
77 74 74 77 71 77 71 71 71 65 55 52 45 45 42 45 42 35 42 42 32 32 29 26 26 26 16 16 13 0 19 23 13 13 13 13 13 6 3 10 13 10 6
74 77 77 77 77 74 71 68 71 61 58 55 48 42 39 42 42 42 39 35 39 29 26 23 23 23 16 13 3 0 19 16 13 13 6 6 6 3 3 10 6 6 6
74 74 74 81 81 74 71 68 68 68 58 55 48 39 39 42 42 42 42 35 35 26 23 26 26 19 16 13 3 3 13 13 10 6 6 6 3 0 0 3 6 6 6
74 74 74 77 77 77 68 71 71 58 55 48 45 39 45 39 35 35 42 35 32 29 26 26 26 26 16 10 6 0 3 10 13 10 6 6 0 0 0 0 0 0 0
71 65 68 68 71 74 71 68 61 52 42 45 42 48 42 42 35 35 32 32 32 19 19 19 16 23 13 6 6 3 0 0 3 10 6 0 0 0 0 0 0 0 0
71 65 65 61 65 68 71 68 58 52 52 48 45 45 45 42 39 42 32 29 23 23 19 19 13 16 13 6 6 6 3 0 0 3 0 0 0 0 0 0 0 0 0
68 65 68 68 65 61 61 61 48 45 48 42 42 42 39 39 42 29 26 23 19 16 16 16 13 19 16 10 3 3 3 3 3 6 0 3 3 3 3 3 3 0 0
61 65 61 58 58 58 58 48 42 45 45 42 45 35 35 39 23 19 19 10 10 3 3 3 10 16 3 3 3 3 3 3 0 3 3 0 3 3 3 3 3 3 0

GEFSMW_con_cape1000_240.txt.gz
Probability
29 32 45 45 52 77 81 84 90 94 94 90 90 90 87 87 87 87 84 87 90 87 84 77 90 87 77 81 77 81 81 77 71 61 55 58 48 52 55 39 35 26 19
35 58 55 52 65 84 87 87 90 87 94 94 94 90 90 90 87 87 87 87 87 84 74 87 90 87 87 84 81 81 77 68 65 58 52 48 45 42 29 39 35 32 32
39 52 55 55 61 68 87 87 87 94 94 94 90 90 94 90 90 87 87 84 84 84 90 84 84 90 81 77 81 77 71 74 68 74 58 39 35 45 45 42 32 26 23
39 55 68 71 65 68 77 87 94 94 94 94 90 87 87 87 87 87 84 81 84 87 81 84 90 90 81 77 74 71 74 71 61 71 71 58 48 39 45 52 35 35 26
32 55 65 71 68 71 77 90 94 94 94 94 90 90 87 84 81 81 84 77 77 77 84 84 87 87 84 77 74 74 74 74 68 71 68 61 58 45 32 26 42 35 26
32 55 65 77 74 77 84 90 97 94 90 90 87 87 84 84 77 77 77 71 71 74 77 84 77 81 77 77 74 74 74 71 71 71 68 61 55 52 39 29 23 26 23
32 52 65 77 77 87 84 90 94 94 90 84 84 84 87 81 81 77 71 71 71 71 74 74 74 74 71 71 74 71 68 68 61 61 61 52 48 45 39 26 19 16 16
32 55 61 81 81 87 87 90 90 90 87 77 81 81 81 77 74 74 71 71 65 68 68 68 71 65 68 61 65 61 65 61 61 48 48 45 42 39 39 39 19 19 13
32 48 71 74 77 87 87 87 90 87 81 77 84 84 81 77 71 68 68 68 71 61 65 65 65 61 48 48 55 55 55 48 55 55 48 39 32 35 39 39 35 19 10
35 58 68 84 81 84 90 90 87 84 81 77 77 74 74 71 71 65 65 65 65 65 58 55 48 45 42 35 39 42 42 35 35 39 32 35 32 35 32 35 35 29 19
45 58 68 77 81 81 84 87 84 84 81 77 74 74 74 68 65 65 61 61 61 58 52 48 48 42 35 35 35 32 32 29 26 26 26 29 32 29 29 35 32 23 19
39 58 77 81 90 87 84 84 81 84 77 74 71 71 68 65 65 61 61 61 52 48 52 45 45 32 29 32 32 29 29 26 23 23 26 26 19 23 26 26 19 23 23
61 74 84 90 94 97 87 81 81 81 71 71 71 68 65 65 61 61 58 52 48 45 45 42 35 32 29 26 26 32 29 26 26 26 26 23 19 26 23 19 19 19 19
74 77 87 94 97 94 94 77 81 74 74 71 71 68 68 65 58 58 52 48 45 42 42 35 35 32 29 29 29 29 29 29 29 29 29 23 19 23 19 19 19 19 19
71 81 87 97 97 90 90 81 81 77 77 74 74 68 65 55 55 55 52 48 48 39 42 39 32 32 29 29 29 29 29 32 29 26 26 19 19 16 16 16 19 19 16
71 81 84 90 90 87 90 87 81 81 77 74 68 65 61 58 52 52 48 48 48 45 45 39 32 32 29 26 23 26 29 32 29 26 16 16 16 16 6 6 6 6 10
77 81 84 94 90 87 87 87 81 77 77 71 68 65 61 52 52 45 48 48 48 48 45 42 35 35 26 16 10 6 26 32 32 29 26 16 13 16 13 6 0 0 0
71 81 81 81 87 87 90 87 81 81 74 68 65 61 58 52 48 48 48 52 52 48 45 42 39 39 32 16 10 10 19 29 29 26 19 16 13 10 10 10 10 10 3
77 81 81 81 87 90 87 87 81 81 74 81 74 61 55 55 48 48 48 48 48 48 45 42 42 39 26 13 10 13 26 29 23 23 19 19 13 6 6 6 6 6 3
81 74 77 77 84 84 87 87 77 74 77 74 71 65 61 61 48 52 48 48 48 48 42 42 42 42 32 16 10 6 19 29 26 23 16 10 13 6 3 3 10 6 6
68 77 84 87 87 84 84 84 84 81 77 71 74 68 71 65 58 55 55 52 48 48 42 42 42 35 29 16 10 6 16 26 26 19 16 6 3 0 0 3 3 6 3
71 77 84 87 87 87 84 84 81 81 68 68 71 68 65 58 45 55 55 55 55 52 48 45 42 32 29 16 13 6 3 10 16 19 10 6 0 0 0 0 3 0 3
77 74 77 84 84 84 84 77 77 77 77 74 71 68 68 65 55 55 55 52 52 48 42 39 35 32 35 19 10 0 0 3 3 6 6 3 0 0 0 0 0 0 0
65 71 68 74 77 74 71 68 77 77 77 65 65 61 58 58 61 55 52 45 48 48 45 39 35 32 39 19 6 3 0 0 0 3 0 0 0 0 0 0 0 0 3
65 68 71 77 74 74 68 65 68 71 58 61 55 55 48 52 52 48 42 39 39 32 32 39 35 32 29 13 6 6 6 3 3 3 3 0 0 0 3 3 3 3 6
61 68 68 68 71 68 71 68 74 71 58 52 52 45 42 48 42 42 29 10 10 10 10 10 13 13 6 6 3 3 3 3 3 0 3 3 3 3 6 6 6 6 6

GEFSMW_con_cape1000_246.txt.gz
Probability
10 19 16 16 19 23 29 32 26 35 32 29 35 29 23 26 26 19 16 23 26 32 23 19 10 10 13 10 10 6 0 3 3 3 3 3 0 3 3 0 0 3 3
13 19 16 23 19 23 23 26 29 39 35 35 35 32 32 29 32 19 23 29 29 29 26 16 16 13 10 10 6 6 0 0 3 3 0 0 0 0 3 0 0 0 0
13 13 16 19 29 29 29 39 39 35 39 42 39 35 35 29 26 23 23 19 32 26 19 19 16 13 13 10 10 10 3 0 3 3 0 0 0 0 0 0 0 0 0
13 10 16 23 32 35 42 45 35 35 45 39 39 39 32 29 26 19 23 23 23 26 19 16 23 13 16 10 10 13 6 0 6 6 3 0 0 3 3 0 0 0 0
16 10 16 19 32 35 42 42 39 48 35 39 45 39 39 32 26 16 26 19 19 23 32 26 16 19 23 19 16 16 16 13 13 13 10 10 3 0 0 0 0 0 0
19 16 16 19 32 39 48 45 48 52 42 42 45 45 42 35 23 16 23 16 16 19 32 29 26 29 32 23 16 19 16 10 10 10 13 10 10 6 0 0 0 0 0
26 16 19 26 35 48 52 52 48 52 52 45 48 45 39 35 29 26 26 19 19 23 26 29 23 23 19 23 16 16 16 16 19 16 10 10 10 10 3 0 0 0 0
26 23 29 35 42 48 48 58 55 58 55 58 55 45 42 35 35 32 32 29 16 19 13 19 23 19 19 26 19 19 16 16 16 19 16 13 10 10 10 3 3 3 0
26 29 26 32 32 39 42 55 58 58 58 55 52 39 45 45 39 35 29 23 13 10 13 19 23 23 23 19 16 19 16 13 16 16 16 16 13 13 16 13 3 3 3
26 26 23 29 32 42 45 45 52 52 52 48 52 45 42 45 48 35 23 23 23 19 16 19 19 19 19 19 16 16 16 16 13 13 13 13 13 16 16 16 10 6 6
29 32 35 32 35 35 42 45 48 45 52 52 52 48 45 45 39 32 29 29 29 26 16 26 26 16 19 19 16 13 16 16 16 13 13 13 13 16 16 16 10 6 6
42 45 35 39 45 42 48 45 42 42 52 48 55 52 52 42 35 35 32 29 29 29 32 29 26 19 13 13 16 19 16 13 16 13 13 13 13 13 16 16 10 6 6
48 42 48 55 55 48 52 52 45 45 48 52 52 48 45 42 39 35 39 35 32 29 32 29 29 19 16 16 19 19 16 13 16 13 16 16 16 16 13 13 10 10 6
42 45 52 52 55 52 55 45 45 45 48 55 55 45 42 39 35 35 39 39 35 32 29 29 26 23 23 23 23 19 16 16 16 19 19 16 16 16 13 13 10 10 6
35 42 52 48 48 48 52 48 48 48 48 58 52 48 45 39 35 35 35 39 35 35 35 29 29 26 26 26 26 23 26 19 19 19 19 19 16 13 13 13 10 10 6
45 42 52 45 42 42 42 48 48 48 52 55 55 48 45 42 39 35 39 39 39 35 32 32 32 32 29 29 23 23 26 23 23 19 16 16 16 13 10 3 3 3 0
48 55 52 45 48 45 48 42 45 52 48 48 52 45 42 42 35 35 35 35 35 29 29 32 32 32 29 23 23 16 19 23 23 19 16 16 10 10 6 0 0 0 0
48 48 48 45 42 48 55 48 45 52 52 48 45 35 42 42 39 35 35 35 29 26 29 32 32 32 26 19 19 16 10 6 16 13 13 10 10 10 3 3 3 0 0
48 45 42 45 45 52 48 48 52 45 42 45 45 35 39 39 39 39 32 29 26 29 29 32 32 29 26 19 16 10 13 13 16 13 13 10 10 10 0 0 0 0 0
42 42 42 42 45 48 52 45 39 35 42 39 35 39 39 39 35 32 39 32 26 26 32 32 29 26 26 23 13 10 13 16 13 6 6 3 3 3 0 0 0 0 0
35 39 42 42 48 48 48 48 42 35 35 35 35 32 32 32 35 29 29 32 32 29 26 23 23 23 23 23 10 6 13 16 13 3 3 3 3 0 0 0 3 3 0
42 42 42 48 45 55 55 52 48 39 39 35 32 29 26 29 32 26 29 29 29 29 29 26 19 19 19 16 13 6 6 10 6 6 3 3 0 0 0 0 0 0 0
42 48 39 42 48 55 52 48 42 35 35 32 29 32 26 26 23 26 26 23 23 26 26 26 19 16 16 16 16 6 3 6 6 0 0 0 0 0 0 0 0 0 0
39 45 42 45 48 48 42 42 39 42 35 32 32 26 23 19 16 16 19 23 26 23 23 23 19 16 16 16 16 10 0 0 0 0 0 0 0 0 0 0 0 0 0
42 42 39 39 42 42 39 42 45 42 35 35 29 26 23 19 16 16 10 13 16 16 19 19 19 16 16 16 13 13 10 3 0 0 0 0 0 0 0 0 0 0 0
42 32 32 39 42 45 39 39 39 39 35 32 32 23 19 16 13 13 10 10 10 10 10 10 13 13 13 13 6 6 10 0 0 0 0 0 0 0 0 0 0 0 0

GEFSMW_con_cape1000_252.txt.gz
Probability
3 3 6 6 6 3 6 6 3 0 6 6 6 6 10 6 6 10 6 6 3 6 0 0 0 0 0 0 0 3 0 0 3 3 0 0 3 3 3 3 3 3 3
3 3 6 6 6 6 10 6 3 0 3 6 10 6 6 6 3 3 6 6 6 6 3 0 0 0 3 3 3 0 0 0 3 3 0 0 0 3 0 0 3 0 0
3 3 3 10 6 10 10 6 0 0 6 6 6 10 6 10 10 16 13 10 13 6 6 3 0 0 0 3 3 3 0 0 3 3 3 3 3 0 3 0 0 0 0
3 3 10 13 16 10 6 6 3 3 6 6 3 6 13 13 6 6 10 6 10 13 16 13 3 0 3 3 10 6 3 0 3 3 3 3 0 6 6 3 0 0 0
10 10 10 13 13 10 10 6 3 0 0 3 0 3 6 3 3 3 13 16 10 10 13 13 10 6 3 3 3 6 6 3 6 10 10 6 3 3 6 6 0 0 0
13 13 10 13 13 10 10 10 0 3 0 3 3 3 10 6 10 13 16 13 6 6 10 10 10 6 6 3 3 3 13 10 10 10 13 10 6 10 3 6 3 0 0
13 13 16 16 16 13 13 16 10 0 0 6 6 13 10 10 10 10 13 13 3 3 6 10 10 10 10 10 6 6 13 13 10 10 6 10 10 10 3 3 3 0 0
13 16 16 26 19 16 19 10 10 6 6 13 16 16 13 10 10 13 16 13 6 6 6 13 16 13 13 13 13 13 10 13 10 6 6 10 13 10 10 6 6 10 3
13 16 23 26 19 19 13 6 6 13 13 16 19 19 16 13 13 10 13 6 10 10 10 10 19 16 13 16 16 13 13 19 13 13 13 16 16 19 13 13 6 10 10
29 23 26 26 19 19 6 13 10 13 16 16 23 23 19 16 13 10 13 10 10 10 10 10 16 16 13 13 13 10 6 10 10 10 13 16 16 13 16 16 13 13 13
29 23 23 23 19 13 6 10 13 16 16 23 26 26 19 19 19 13 13 13 13 10 10 10 13 16 16 16 13 10 6 10 13 13 13 16 13 13 16 16 13 13 13
26 26 23 16 19 16 6 10 13 19 26 29 32 29 29 23 23 19 19 16 13 13 10 10 13 23 19 13 13 13 13 13 13 13 13 13 13 13 16 16 13 13 13
29 19 13 16 13 19 16 16 19 26 29 32 29 26 26 26 26 26 23 19 16 13 13 16 16 23 23 19 16 16 13 13 10 13 13 13 10 13 13 16 16 13 13
23 19 19 19 19 23 16 19 29 29 32 32 29 32 26 26 26 26 26 32 29 29 23 26 26 29 23 19 26 19 19 16 13 13 13 13 10 10 10 13 13 13 13
29 26 23 16 23 29 23 23 26 29 32 35 35 29 29 26 26 23 29 32 29 32 32 29 29 26 26 23 26 26 23 23 19 13 13 13 13 10 10 10 13 13 10
26 29 26 23 26 26 26 23 26 26 32 32 32 26 26 26 23 23 26 29 26 29 32 29 26 26 26 19 19 19 23 23 23 19 16 16 16 13 0 0 0 0 6
29 29 26 29 32 29 19 19 19 26 32 29 23 26 19 23 26 26 26 29 26 26 26 29 26 26 26 13 10 3 16 23 23 19 16 16 13 10 10 10 3 0 0
29 26 23 29 29 29 23 19 19 26 29 29 23 19 19 23 23 23 26 26 23 23 26 23 23 29 23 16 6 6 6 19 16 19 16 16 16 10 13 13 10 0 0
23 23 26 26 29 26 23 23 32 32 32 32 29 23 19 19 26 26 23 23 26 26 23 23 26 23 23 16 3 6 13 19 16 16 13 13 13 10 3 6 6 0 0
23 26 26 26 26 23 23 29 29 32 35 32 26 26 29 26 26 29 29 19 26 29 23 19 19 19 19 16 0 0 10 16 16 16 10 3 6 6 3 3 3 3 0
26 32 35 35 35 29 23 26 29 29 26 32 32 32 29 23 23 23 23 16 19 19 16 19 19 16 16 16 0 0 10 19 19 19 13 10 3 3 0 0 3 0 0
26 29 32 32 23 29 32 29 29 26 19 19 26 29 29 26 23 19 19 19 16 13 13 19 16 16 16 16 13 0 0 6 13 16 16 16 3 0 0 0 0 0 0
23 29 26 23 23 26 29 26 26 26 23 23 23 29 29 26 19 19 19 19 19 16 19 16 16 16 16 13 10 0 0 0 3 13 13 6 0 0 0 0 0 0 0
26 23 23 23 26 29 29 23 26 29 26 26 19 26 19 19 23 16 16 16 16 19 19 19 16 13 16 13 13 13 6 3 3 3 0 0 0 0 0 0 0 0 0
26 23 23 23 23 26 26 29 26 26 26 26 23 23 23 19 16 10 10 10 16 16 16 19 19 13 13 10 13 13 13 16 13 10 3 0 0 0 0 0 0 0 0
10 13 16 26 23 23 23 23 26 23 19 19 23 16 16 19 19 16 16 13 13 13 10 13 13 10 10 10 3 3 3 3 3 0 6 6 6 3 3 3 0 0 0

GEFSMW_con_cape1000_258.txt.gz
Probability
26 32 39 45 45 52 68 71 77 81 87 77 68 71 68 68 58 55 65 65 61 65 74 52 61 55 55 61 48 52 55 52 61 45 29 32 29 35 32 32 23 23 26
32 32 39 48 48 61 68 74 81 77 77 87 81 77 77 68 61 58 74 65 61 61 48 68 55 68 68 58 58 65 55 52 55 52 42 29 26 29 13 26 29 32 29
26 32 32 45 48 55 65 55 81 81 81 77 81 74 81 77 58 58 71 55 61 58 61 61 61 71 58 61 61 58 55 52 55 52 32 48 32 26 16 23 26 29 39
19 26 35 45 52 58 58 74 90 90 90 87 77 77 77 55 61 65 65 65 65 61 58 61 65 68 58 61 55 48 55 58 48 48 52 48 39 35 35 29 26 26 35
16 19 29 45 48 55 61 68 90 87 87 87 87 87 65 65 55 61 68 65 58 52 45 55 65 61 65 65 61 61 48 52 48 52 52 52 52 45 32 26 35 23 19
16 19 26 42 52 58 65 65 87 90 81 81 71 81 74 71 61 71 65 55 52 52 45 52 61 61 55 52 55 58 55 48 52 42 42 42 45 39 39 35 29 29 23
19 26 32 52 71 68 71 77 84 81 81 77 74 74 74 71 68 58 61 58 42 39 55 42 55 58 55 48 52 48 48 42 45 42 45 39 35 32 23 32 26 16 16
29 32 39 58 68 74 84 84 81 81 74 71 74 71 71 61 58 61 52 48 45 35 35 45 52 52 52 45 48 39 39 45 39 35 42 39 26 26 26 35 23 19 16
29 42 39 48 58 65 81 81 77 81 77 68 71 68 68 68 58 61 58 52 52 42 45 48 48 48 48 48 45 45 48 45 35 35 32 32 26 32 29 26 26 26 16
32 39 39 55 61 61 68 77 77 77 77 68 65 61 71 71 68 61 58 52 55 52 48 45 45 48 45 45 48 45 48 48 42 39 35 35 32 32 26 23 29 29 26
35 42 52 61 65 58 65 74 77 77 77 71 61 61 61 65 68 68 61 61 61 58 52 52 52 48 52 48 48 39 39 35 42 39 35 35 35 32 32 29 26 29 32
52 35 39 58 61 65 58 58 61 65 71 65 61 61 61 61 65 68 61 61 55 55 55 55 55 48 45 48 42 39 35 35 35 32 39 32 32 35 35 32 29 29 29
52 48 55 61 65 61 65 61 61 58 58 52 52 58 61 61 65 65 65 58 58 58 55 52 52 52 48 48 45 42 39 35 39 32 32 32 32 39 39 39 32 26 26
61 61 71 68 71 68 68 68 68 65 58 55 52 55 58 61 61 58 61 58 58 55 58 52 52 52 48 48 42 32 32 35 35 32 35 35 35 39 39 39 32 32 29
61 68 71 65 68 65 74 71 68 71 68 71 65 65 61 55 58 55 58 61 52 52 52 52 48 48 48 42 39 35 35 35 29 29 32 32 29 29 29 29 29 32 29
61 61 68 71 71 74 77 77 77 77 77 74 65 61 58 55 52 52 52 61 55 52 48 48 48 42 39 23 19 23 39 39 35 35 32 32 29 26 10 3 3 19 26
58 61 68 65 77 74 77 74 81 77 77 71 65 65 61 55 55 52 55 55 55 52 48 48 48 45 35 19 3 0 26 35 35 35 35 29 26 23 32 10 6 3 0
58 61 68 61 68 71 81 77 77 81 81 71 68 68 61 61 61 55 48 52 52 58 52 48 42 48 29 19 10 3 16 32 32 32 35 35 32 29 29 29 26 19 19
65 58 58 58 71 71 74 77 81 81 81 81 81 71 65 61 55 55 58 55 52 55 48 42 39 42 29 19 10 0 26 29 29 23 26 23 29 23 13 19 26 26 26
61 58 58 61 81 77 77 77 81 81 81 81 81 74 68 58 55 52 55 52 48 48 45 42 42 35 35 26 6 0 29 32 26 26 19 19 19 13 10 19 23 23 23
68 58 61 68 74 77 74 74 77 74 74 74 74 68 71 68 61 61 58 55 48 48 39 39 39 39 29 26 16 0 26 29 23 23 19 19 13 0 0 3 13 13 13
55 58 65 68 71 74 74 71 71 74 71 71 71 65 65 58 52 61 58 52 48 42 39 39 35 35 32 26 19 0 0 16 23 26 23 19 13 0 0 3 6 6 3
61 61 65 65 71 68 68 71 71 74 71 68 65 61 61 58 55 58 55 48 45 42 32 35 35 32 32 26 16 6 0 0 19 23 13 13 3 3 0 0 0 0 6
52 55 58 55 58 61 65 61 68 68 68 71 61 61 61 48 45 55 48 35 35 35 29 32 39 39 39 32 26 23 13 0 0 10 10 3 3 3 3 6 0 6 6
52 52 48 52 58 58 58 55 61 68 65 58 52 48 48 45 45 39 39 32 32 29 29 32 32 32 26 23 13 19 26 19 13 10 16 13 16 13 16 13 10 6 6
55 52 52 48 55 52 55 55 55 65 61 52 45 45 42 35 29 32 29 16 13 13 10 10 10 13 13 6 10 6 6 6 6 6 13 16 16 16 16 16 10 10 10

GEFSMW_con_cape1000_264.txt.gz
Probability
29 32 39 32 52 68 77 84 87 94 94 94 94 90 90 90 87 84 81 81 71 71 81 74 77 77 81 81 77 74 65 74 74 61 55 55 52 55 61 52 42 32 29
32 32 39 48 58 77 84 90 94 94 94 94 94 90 90 90 87 84 84 84 77 71 65 74 74 77 81 77 74 77 61 61 61 68 52 55 45 52 19 35 42 32 32
29 48 48 52 58 77 94 81 94 94 94 94 94 90 90 87 87 87 84 77 74 74 71 71 71 74 74 74 74 68 71 61 58 65 58 48 39 52 42 32 29 32 32
26 35 48 55 58 81 87 97 97 94 94 94 90 90 84 84 84 87 84 81 71 65 61 74 74 74 74 77 68 74 71 71 65 65 68 65 58 48 32 35 32 35 32
26 29 39 65 65 68 84 97 97 97 94 94 87 87 87 87 84 84 84 81 77 74 68 68 71 74 71 77 71 74 71 68 61 65 65 68 61 58 42 32 35 35 35
23 32 48 65 65 68 74 87 97 97 90 84 87 87 87 84 84 77 81 74 77 77 71 65 68 71 68 68 61 74 68 61 61 58 55 58 52 52 42 32 32 35 35
23 29 52 61 68 68 71 90 94 90 87 87 81 81 81 81 77 77 81 77 77 77 74 58 68 65 65 58 58 71 61 58 61 55 55 55 55 48 48 35 29 29 29
23 35 39 65 61 68 81 87 94 90 90 87 87 84 87 77 81 77 77 77 77 71 58 61 61 58 61 58 55 65 55 65 65 52 55 52 48 45 45 39 35 29 26
23 29 39 39 52 58 77 87 87 94 94 90 90 90 84 84 81 77 74 68 74 68 61 58 58 55 58 58 61 65 55 58 58 55 48 52 55 45 42 39 35 29 32
16 29 35 45 45 61 77 87 87 90 94 84 84 77 81 84 84 71 77 71 68 68 61 58 58 58 61 58 52 61 55 52 52 55 48 45 45 48 42 39 35 32 32
26 32 32 48 48 48 58 77 81 90 87 87 84 84 81 81 84 77 74 68 71 71 68 61 58 61 61 58 55 55 58 48 45 42 45 48 45 42 48 45 42 39 29
29 42 32 45 52 52 58 77 77 84 81 81 84 84 81 74 74 77 71 68 71 74 68 68 65 61 61 61 58 58 52 42 39 45 45 45 42 48 52 52 42 39 39
39 42 52 52 58 68 74 74 77 81 74 81 81 81 84 81 74 74 68 71 74 74 71 74 71 68 61 61 58 58 58 48 45 45 42 45 48 45 42 42 39 42 29
55 48 77 74 81 87 84 84 84 74 84 84 81 87 84 84 77 74 71 68 68 68 71 74 71 71 61 61 55 52 55 48 45 45 45 48 45 42 48 42 39 39 42
55 77 81 77 84 84 84 84 81 84 84 84 87 84 84 81 77 77 74 71 68 68 71 71 65 65 55 48 52 55 42 45 48 45 45 45 35 32 32 26 32 32 39
58 74 84 84 84 77 81 81 81 84 84 84 74 84 87 81 77 74 71 74 71 71 65 61 58 61 45 39 35 32 39 42 42 42 42 39 35 23 16 16 16 19 19
48 65 74 81 84 77 77 74 81 81 81 81 77 84 84 81 74 71 71 68 71 68 71 61 61 58 42 26 16 10 29 39 42 39 39 32 26 23 23 19 13 13 3
42 65 61 71 77 74 74 74 77 81 81 81 77 77 77 71 77 74 71 71 71 68 65 65 58 55 45 23 16 6 13 32 39 42 42 35 29 23 23 19 23 19 16
58 65 58 61 68 74 74 77 77 81 77 77 81 77 77 74 77 77 77 71 65 68 65 61 55 52 45 26 19 3 29 32 39 32 32 32 29 16 16 19 23 19 23
52 55 52 55 65 71 74 77 77 77 74 77 77 77 77 71 71 71 71 71 68 65 58 58 55 52 48 29 19 0 26 29 32 35 29 19 16 16 16 19 19 19 16
58 58 55 61 65 68 68 71 71 74 74 65 71 74 71 71 65 74 71 65 65 58 61 58 55 55 48 29 19 3 23 26 35 35 29 23 16 6 3 10 16 16 16
58 65 68 68 65 65 61 65 71 68 71 68 71 71 71 61 58 71 65 61 61 65 58 52 52 48 48 29 16 3 3 16 26 29 29 19 6 3 0 0 10 13 3
61 65 65 61 65 65 65 68 68 71 71 65 65 68 61 61 58 61 52 52 55 55 52 48 48 45 45 32 16 6 0 0 16 23 16 10 0 0 3 0 0 0 3
61 65 61 58 58 61 61 65 68 68 71 65 65 61 65 58 58 58 48 48 48 52 48 45 48 45 39 39 26 19 3 0 0 10 10 3 3 3 3 6 3 0 10
58 55 58 58 58 61 65 65 61 68 68 68 65 58 52 52 48 48 45 45 48 45 48 42 42 39 32 19 19 26 26 23 26 16 23 16 16 13 13 13 19 16 16
58 58 58 58 58 58 65 58 65 65 65 61 58 55 52 52 42 45 39 26 19 10 6 13 16 19 13 6 6 3 6 6 6 10 19 16 16 16 16 13 16 16 16

GEFSMW_con_cape1000_270.txt.gz
Probability
6 10 10 13 16 13 19 23 19 19 23 26 23 19 16 23 23 13 13 16 13 10 10 10 6 10 13 10 13 6 6 6 6 6 3 3 3 3 0 0 0 0 0
6 10 13 13 29 26 26 23 23 19 23 26 26 19 16 23 19 23 19 19 16 10 13 10 13 13 10 13 16 13 10 6 6 0 0 3 0 3 6 3 3 3 0
10 13 16 16 23 26 29 23 19 19 23 26 19 26 19 29 29 26 23 29 16 16 19 10 13 13 16 16 16 13 16 13 6 3 0 3 0 0 3 3 6 3 0
10 13 16 13 26 29 32 23 26 29 29 29 35 35 29 29 19 23 26 23 19 13 10 10 13 10 13 16 16 13 13 13 13 10 6 0 0 6 3 0 3 3 6
10 10 10 19 23 35 35 35 32 29 32 35 32 35 32 32 29 26 32 23 13 10 16 19 10 13 16 16 19 16 16 19 16 19 13 13 13 6 6 0 0 3 3
19 10 13 23 32 39 45 39 42 45 42 39 29 29 32 35 35 35 29 26 13 16 16 23 23 16 16 19 19 19 19 19 19 19 19 19 16 6 3 3 0 0 0
16 13 13 16 29 39 45 42 39 45 42 39 35 32 32 39 39 39 39 26 29 26 26 26 23 23 23 23 23 23 19 19 19 19 19 19 19 16 3 3 3 3 0
16 13 16 19 19 32 39 42 39 45 39 42 39 42 32 39 32 35 32 32 32 29 26 23 26 26 26 29 29 29 26 19 16 19 19 23 23 23 13 10 6 3 3
13 16 13 16 19 19 35 42 42 45 35 42 42 42 35 39 42 35 32 29 23 26 26 23 32 26 23 32 26 23 26 26 26 26 23 23 23 16 19 10 10 6 10
16 13 16 13 19 16 29 39 39 39 42 39 45 42 42 42 35 35 35 29 29 26 26 29 32 29 26 32 23 23 26 23 23 23 23 19 16 16 16 10 10 6 13
16 13 16 13 13 26 29 35 39 39 39 45 42 42 39 42 39 39 39 39 35 32 29 32 35 32 32 29 26 26 26 26 26 26 26 19 19 13 16 13 13 13 13
13 6 10 19 19 19 26 35 35 42 42 48 45 39 35 39 39 39 42 42 35 39 29 26 32 35 35 35 35 32 29 26 26 26 26 26 26 19 16 13 13 16 13
6 6 16 23 23 19 16 29 35 42 45 45 45 39 35 42 42 42 42 42 42 42 39 29 35 39 35 39 42 35 29 26 23 23 23 26 26 23 19 16 13 13 13
6 3 19 19 16 23 19 29 39 35 39 42 48 48 39 39 39 35 42 39 35 35 29 29 35 35 35 39 39 32 29 26 23 23 26 23 26 23 26 23 23 16 13
13 19 23 23 19 29 29 32 39 39 42 52 48 48 45 39 35 35 32 35 32 32 29 29 32 32 39 39 39 35 29 26 26 26 23 19 23 23 23 19 16 16 16
23 26 29 32 29 29 29 29 39 45 39 48 52 45 42 42 42 39 26 29 29 32 32 35 35 35 39 42 35 32 26 26 19 19 16 19 19 23 16 16 13 16 16
35 35 39 39 26 23 23 26 32 42 42 52 48 39 42 48 45 29 29 23 26 32 35 35 35 32 32 32 26 19 19 23 19 19 16 23 19 16 16 13 13 13 10
29 39 35 39 32 26 26 26 29 32 42 39 45 45 39 42 32 29 29 26 23 23 26 26 32 32 35 26 10 6 13 13 13 16 16 19 19 16 16 16 16 16 13
23 32 39 39 32 32 29 32 32 39 42 45 48 42 39 35 39 35 29 26 26 26 26 23 29 29 26 23 16 6 16 19 13 13 13 13 13 13 16 16 16 16 16
19 26 29 32 35 32 29 35 35 39 35 35 42 42 32 39 32 35 26 26 26 29 29 32 29 29 29 19 13 6 19 19 16 13 13 13 10 13 6 10 10 16 16
26 19 26 29 23 32 39 35 39 39 35 39 35 35 26 26 23 26 29 26 29 29 29 26 26 23 23 16 13 6 19 23 19 16 16 16 13 6 0 0 6 10 10
19 23 23 29 32 35 42 35 39 42 42 45 35 32 26 29 29 23 26 26 29 29 26 26 26 26 23 16 16 6 3 13 23 19 16 16 13 3 3 0 0 3 0
19 23 32 32 29 29 32 35 42 42 42 42 35 29 29 29 32 29 29 29 32 29 26 26 26 26 23 16 13 13 3 0 10 19 10 10 6 3 0 0 0 0 0
19 29 29 32 26 26 32 35 42 42 39 39 39 26 26 26 26 26 26 26 29 29 23 26 26 23 23 19 13 13 10 0 0 3 3 3 3 0 0 3 3 0 0
23 29 26 23 26 32 32 32 35 39 42 29 29 23 23 26 29 26 19 26 29 26 26 26 26 26 23 19 10 13 10 6 6 3 3 6 3 3 6 6 6 6 3
32 29 29 32 29 32 39 35 32 35 35 32 29 26 26 29 26 26 19 10 16 16 10 10 19 19 19 13 3 3 3 3 6 3 3 3 3 3 3 6 6 3 3